SL-3 R/B

Last updated on Sun Dec 07 2025 00:02:14 GMT+0000 (Coordinated Universal Time)

1 19046U 88032B 25340.60215082 .00008257 00000+0 39835-3 0 9991 2 19046 97.5074 319.3653 0026026 194.3985 165.6511 15.18648682 37979
UTC large
Height (km)
Speed (km/s)
/
Latitude / Longitude
Inclination (degrees)
Orbital Period (minutes)
Azimuth
Elevation
Range (km)
Doppler Factor

Next 0 passes for location: London (51.5072 / 0.1276)

Sorry there are no passes over London.